TimeCDT,TemperatureF,Dew PointF,Humidity,Sea Level PressureIn,VisibilityMPH,Wind Direction,Wind SpeedMPH,Gust SpeedMPH,PrecipitationIn,Events,Conditions,WindDirDegrees,DateUTC
12:15 AM,60.6,53.1,76,30.13,10.0,Calm,Calm,-,N/A,,Clear,0,2013-06-20 05:15:00
12:35 AM,60.1,53.6,79,30.13,10.0,Calm,Calm,-,N/A,,Clear,0,2013-06-20 05:35:00
12:55 AM,59.4,54.0,82,30.13,10.0,Calm,Calm,-,N/A,,Clear,0,2013-06-20 05:55:00
1:15 AM,59.4,53.6,81,30.13,10.0,ESE,3.5,-,N/A,,Clear,110,2013-06-20 06:15:00
1:35 AM,59.5,53.2,80,30.13,10.0,East,3.5,-,N/A,,Clear,100,2013-06-20 06:35:00
1:55 AM,59.2,52.5,79,30.13,10.0,Calm,Calm,-,N/A,,Clear,0,2013-06-20 06:55:00
2:15 AM,59.2,52.3,78,30.14,10.0,Calm,Calm,-,N/A,,Mostly Cloudy,0,2013-06-20 07:15:00
2:35 AM,59.2,54.1,83,30.14,10.0,Calm,Calm,-,N/A,,Mostly Cloudy,0,2013-06-20 07:35:00
2:55 AM,59.2,53.6,82,30.14,10.0,Calm,Calm,-,N/A,,Mostly Cloudy,0,2013-06-20 07:55:00
3:15 AM,59.4,54.0,82,30.14,10.0,Calm,Calm,-,N/A,,Mostly Cloudy,0,2013-06-20 08:15:00
3:35 AM,59.7,54.1,82,30.14,10.0,ESE,3.5,-,N/A,,Mostly Cloudy,110,2013-06-20 08:35:00
3:55 AM,60.1,54.5,82,30.14,10.0,Calm,Calm,-,N/A,,Scattered Clouds,0,2013-06-20 08:55:00
4:15 AM,59.5,55.2,86,30.15,10.0,SE,4.6,-,N/A,,Mostly Cloudy,130,2013-06-20 09:15:00
4:35 AM,59.9,56.1,87,30.15,10.0,SE,4.6,-,N/A,,Mostly Cloudy,140,2013-06-20 09:35:00
4:55 AM,60.6,56.3,86,30.15,10.0,SE,4.6,-,N/A,,Mostly Cloudy,140,2013-06-20 09:55:00
5:15 AM,61.7,56.3,82,30.15,10.0,ESE,4.6,-,N/A,,Overcast,120,2013-06-20 10:15:00
5:35 AM,61.9,56.1,81,30.15,10.0,Calm,Calm,-,N/A,,Scattered Clouds,0,2013-06-20 10:35:00
5:55 AM,61.5,56.3,83,30.15,10.0,SE,3.5,-,N/A,,Mostly Cloudy,140,2013-06-20 10:55:00
6:15 AM,61.9,56.8,84,30.15,10.0,ESE,3.5,-,N/A,,Scattered Clouds,120,2013-06-20 11:15:00
6:35 AM,63.1,57.2,81,30.16,10.0,ESE,3.5,-,N/A,,Mostly Cloudy,110,2013-06-20 11:35:00
6:55 AM,64.2,57.0,77,30.17,10.0,Calm,Calm,-,N/A,,Overcast,0,2013-06-20 11:55:00
7:15 AM,64.9,57.0,75,30.17,10.0,East,3.5,-,N/A,,Overcast,100,2013-06-20 12:15:00
7:35 AM,65.8,57.6,75,30.17,10.0,ESE,3.5,-,N/A,,Overcast,110,2013-06-20 12:35:00
7:55 AM,66.2,57.4,73,30.17,10.0,SE,5.8,-,N/A,,Overcast,130,2013-06-20 12:55:00
8:15 AM,67.1,57.4,71,30.18,10.0,SSE,5.8,-,N/A,,Overcast,150,2013-06-20 13:15:00
8:35 AM,67.8,57.6,70,30.18,10.0,SE,4.6,-,N/A,,Overcast,140,2013-06-20 13:35:00
8:55 AM,68.5,57.6,68,30.18,10.0,SE,4.6,-,N/A,,Overcast,140,2013-06-20 13:55:00
9:15 AM,69.4,58.1,67,30.18,10.0,SE,5.8,-,N/A,,Overcast,140,2013-06-20 14:15:00
9:35 AM,70.7,58.6,66,30.18,10.0,SSE,4.6,-,N/A,,Scattered Clouds,150,2013-06-20 14:35:00
9:55 AM,72.5,59.4,63,30.18,10.0,SSE,4.6,-,N/A,,Clear,160,2013-06-20 14:55:00
10:15 AM,74.5,60.3,61,30.18,10.0,ESE,3.5,-,N/A,,Clear,120,2013-06-20 15:15:00
10:35 AM,76.5,61.2,59,30.18,10.0,ESE,4.6,-,N/A,,Scattered Clouds,120,2013-06-20 15:35:00
10:55 AM,77.4,60.8,57,30.18,10.0,SE,3.5,-,N/A,,Mostly Cloudy,140,2013-06-20 15:55:00
11:15 AM,77.0,59.9,55,30.18,10.0,South,5.8,-,N/A,,Mostly Cloudy,180,2013-06-20 16:15:00
11:35 AM,77.2,60.3,56,30.18,10.0,South,4.6,-,N/A,,Mostly Cloudy,170,2013-06-20 16:35:00
11:55 AM,76.3,60.3,57,30.18,10.0,SW,3.5,-,N/A,,Overcast,230,2013-06-20 16:55:00
12:15 PM,75.4,60.8,60,30.18,10.0,South,5.8,-,N/A,,Overcast,180,2013-06-20 17:15:00
12:35 PM,75.9,60.8,59,30.18,10.0,South,4.6,-,N/A,,Mostly Cloudy,180,2013-06-20 17:35:00
12:55 PM,77.7,59.7,54,30.18,10.0,Calm,Calm,-,N/A,,Scattered Clouds,0,2013-06-20 17:55:00
1:15 PM,78.8,60.1,53,30.17,10.0,Calm,Calm,-,N/A,,Scattered Clouds,0,2013-06-20 18:15:00
1:35 PM,79.9,60.1,51,30.16,10.0,ENE,3.5,-,N/A,,Clear,70,2013-06-20 18:35:00
1:55 PM,80.8,61.3,51,30.16,10.0,Calm,Calm,-,N/A,,Clear,0,2013-06-20 18:55:00
2:15 PM,81.1,61.7,51,30.15,10.0,East,3.5,-,N/A,,Clear,100,2013-06-20 19:15:00
2:35 PM,82.4,61.3,49,30.15,10.0,Calm,Calm,-,N/A,,Scattered Clouds,0,2013-06-20 19:35:00
2:55 PM,81.3,61.7,51,30.15,10.0,NNE,4.6,-,N/A,,Mostly Cloudy,30,2013-06-20 19:55:00
3:15 PM,80.8,61.9,52,30.15,10.0,East,4.6,-,N/A,,Mostly Cloudy,80,2013-06-20 20:15:00
3:35 PM,82.8,61.2,48,30.15,10.0,ESE,3.5,-,N/A,,Clear,110,2013-06-20 20:35:00
3:55 PM,83.3,61.3,47,30.14,10.0,SSE,3.5,-,N/A,,Scattered Clouds,150,2013-06-20 20:55:00
4:15 PM,82.9,61.2,48,30.13,10.0,ESE,9.2,-,N/A,,Scattered Clouds,120,2013-06-20 21:15:00
4:35 PM,83.1,61.9,49,30.13,10.0,SE,6.9,-,N/A,,Clear,140,2013-06-20 21:35:00
4:55 PM,83.1,61.9,49,30.12,10.0,SE,5.8,-,N/A,,Clear,140,2013-06-20 21:55:00
5:15 PM,83.1,61.7,48,30.12,10.0,SSE,5.8,-,N/A,,Clear,160,2013-06-20 22:15:00
5:35 PM,82.9,61.7,49,30.12,10.0,SE,5.8,-,N/A,,Clear,140,2013-06-20 22:35:00
5:55 PM,82.6,62.1,50,30.12,10.0,SE,6.9,-,N/A,,Clear,140,2013-06-20 22:55:00
6:15 PM,82.2,62.4,51,30.12,10.0,SSE,6.9,-,N/A,,Clear,150,2013-06-20 23:15:00
6:35 PM,81.9,62.8,52,30.12,10.0,ESE,5.8,-,N/A,,Clear,120,2013-06-20 23:35:00
6:55 PM,81.5,63.1,54,30.11,10.0,ESE,5.8,-,N/A,,Clear,120,2013-06-20 23:55:00
7:15 PM,80.8,63.5,56,30.11,10.0,ESE,5.8,-,N/A,,Clear,110,2013-06-21 00:15:00
7:35 PM,80.2,64.0,58,30.11,10.0,ESE,4.6,-,N/A,,Clear,110,2013-06-21 00:35:00
7:55 PM,79.2,64.4,60,30.11,10.0,ESE,4.6,-,N/A,,Clear,120,2013-06-21 00:55:00
8:15 PM,77.5,64.6,64,30.11,10.0,ESE,3.5,-,N/A,,Clear,120,2013-06-21 01:15:00
8:35 PM,76.1,64.6,67,30.11,10.0,ESE,4.6,-,N/A,,Clear,120,2013-06-21 01:35:00
8:55 PM,74.7,64.9,72,30.11,10.0,ESE,4.6,-,N/A,,Clear,110,2013-06-21 01:55:00
9:15 PM,73.0,67.3,82,30.12,10.0,ESE,5.8,-,N/A,,Clear,110,2013-06-21 02:15:00
9:35 PM,72.7,68.0,85,30.13,10.0,ESE,4.6,-,N/A,,Clear,110,2013-06-21 02:35:00
9:55 PM,72.0,67.6,86,30.13,10.0,ESE,5.8,-,N/A,,Clear,120,2013-06-21 02:55:00
10:15 PM,71.8,67.5,86,30.13,10.0,SE,6.9,-,N/A,,Clear,130,2013-06-21 03:15:00
10:35 PM,71.1,67.3,88,30.14,10.0,SE,5.8,-,N/A,,Clear,140,2013-06-21 03:35:00
10:55 PM,70.9,67.1,88,30.15,10.0,SE,4.6,-,N/A,,Clear,140,2013-06-21 03:55:00
11:15 PM,70.0,67.1,91,30.15,10.0,SE,5.8,-,N/A,,Clear,140,2013-06-21 04:15:00
11:35 PM,69.3,66.7,92,30.15,10.0,SE,4.6,-,N/A,,Clear,140,2013-06-21 04:35:00
11:55 PM,69.1,66.4,91,30.15,10.0,SE,4.6,-,N/A,,Clear,140,2013-06-21 04:55:00